Theta_e
353 349 348 348 348 345 338 333 314 322 321 312 313 315 313 327 326 324 323 327 321 332 333 331 329 327 325 321 321 326 328 319 319 308 302 321 345 346 349 350 352 353 353 355 356 356 355 354 355 355 359 363 363 363 363 363 363 363 364 364 364 364 364 364 364 363 363 363 363 364 363 363 363 362 362 361 361 359 361 362 362 362 361 361 362 361 361 362 362 362 362 362 363 363 363 362 360
350 349 349 349 343 340 329 333 317 315 316 312 313 319 319 324 324 321 321 323 326 329 334 329 331 333 333 330 329 328 325 330 332 330 335 343 348 347 350 352 353 352 354 356 356 355 353 354 356 359 362 363 364 363 363 363 363 364 364 364 364 364 364 363 363 363 362 362 362 362 363 362 363 362 361 361 359 358 360 362 358 361 360 362 361 361 362 362 362 361 361 362 363 363 362 360 359
347 348 346 345 342 337 333 333 313 313 309 306 311 317 325 319 319 322 327 328 331 335 335 332 333 334 331 330 323 323 316 335 334 336 337 345 340 344 350 353 354 355 355 357 355 355 351 356 363 363 363 364 364 363 363 363 364 364 364 364 364 364 363 363 363 362 361 360 360 360 359 361 361 362 360 360 359 360 361 361 358 359 360 361 361 361 361 362 363 362 362 362 362 362 361 361 359
347 347 341 341 331 336 323 322 315 312 309 310 311 321 321 319 322 325 329 330 333 333 331 328 325 332 330 322 324 330 328 330 336 336 334 340 339 348 351 354 356 356 357 357 358 358 359 362 363 365 364 363 363 363 364 364 364 364 364 363 363 364 363 363 361 357 356 357 357 355 356 359 361 362 360 358 355 359 360 360 359 358 360 361 361 361 362 362 362 362 362 362 361 361 362 362 361
344 346 345 338 330 323 324 320 318 318 310 312 309 320 324 323 324 327 328 332 332 334 333 331 326 332 335 328 331 320 324 335 336 341 339 345 350 351 353 355 355 355 356 357 358 358 359 363 363 363 363 364 364 364 364 363 363 363 362 363 363 361 362 358 355 355 357 357 357 358 359 359 360 361 359 358 358 359 360 361 360 358 357 355 358 361 361 361 361 361 361 360 360 361 361 362 362
346 345 351 344 330 338 330 319 316 315 320 323 316 318 325 326 326 329 330 333 335 335 335 330 326 327 328 330 334 329 334 325 336 339 343 344 350 353 354 356 354 354 355 356 357 356 357 363 363 363 363 364 363 363 363 362 362 363 362 361 362 361 359 355 355 355 356 358 357 359 359 360 360 360 360 357 357 358 359 360 360 356 354 354 358 359 360 360 360 360 360 360 359 360 361 361 362
339 340 341 337 334 337 316 315 314 315 323 328 323 324 327 327 329 329 327 329 334 335 338 329 331 329 324 331 335 338 341 341 338 340 346 349 352 354 355 354 354 353 355 355 356 357 359 364 364 364 364 364 363 363 363 363 362 363 362 362 362 361 358 356 357 355 355 357 358 359 359 359 359 359 359 358 358 358 358 359 359 357 356 356 358 358 356 358 359 359 360 360 360 359 360 361 361
352 334 335 326 321 325 317 318 317 319 322 328 331 328 328 329 331 329 326 327 326 326 329 331 333 328 326 336 325 340 345 346 345 348 350 351 353 353 354 353 353 353 355 355 356 359 363 365 363 364 364 364 364 363 363 362 361 362 361 360 362 361 357 355 354 354 355 356 356 355 358 357 359 358 358 358 358 358 358 360 360 357 358 358 357 357 356 356 357 358 359 358 356 357 359 361 361
339 338 342 328 319 323 318 315 319 328 326 329 329 335 335 332 332 329 326 331 328 329 328 329 330 323 326 330 330 339 342 347 348 351 351 351 352 353 353 353 352 353 355 356 358 360 362 365 363 364 364 363 364 363 362 362 362 363 362 362 362 361 357 354 354 352 352 352 354 354 356 358 358 358 359 359 359 359 359 359 359 359 358 358 357 355 354 355 355 355 353 353 355 356 356 359 361
334 335 326 325 325 315 315 313 318 323 325 329 330 332 333 333 331 334 329 326 327 328 330 333 332 325 330 326 331 337 340 347 348 348 350 351 352 352 352 353 354 354 355 356 358 359 360 364 364 364 364 363 363 362 362 362 363 362 362 362 361 362 359 354 355 354 354 355 356 355 356 358 358 358 359 359 359 359 359 359 359 360 359 358 357 356 355 355 356 354 352 352 354 356 358 359 361
325 336 338 322 315 314 311 311 321 325 325 330 331 335 336 335 332 330 330 327 330 328 330 332 327 327 329 329 332 344 346 347 345 344 349 350 351 351 351 353 354 355 355 357 359 359 360 361 364 364 363 363 363 363 363 363 363 363 363 362 361 361 360 359 356 355 354 355 357 357 358 359 358 358 358 358 359 359 359 358 360 359 358 358 358 358 355 356 357 355 355 352 354 356 359 361 359
324 328 327 316 314 312 314 314 319 323 326 328 328 333 336 335 334 328 327 325 327 328 328 332 325 332 327 328 331 341 345 345 345 347 349 350 350 351 352 353 354 356 357 358 359 358 359 360 362 364 364 364 364 363 362 362 362 363 362 361 360 360 359 357 354 353 354 356 356 357 358 359 359 359 358 358 359 359 358 358 357 357 357 357 358 358 356 356 356 356 356 356 357 357 358 358 358
326 330 324 319 317 315 316 319 321 323 323 325 327 333 340 333 332 328 328 328 328 326 327 333 333 330 323 327 338 341 341 344 347 348 349 350 350 351 351 352 354 356 357 358 358 357 358 358 361 361 362 364 363 363 362 362 362 362 362 362 361 359 360 359 353 352 355 355 356 358 358 358 358 358 358 358 358 358 358 357 357 358 357 358 357 358 357 356 358 358 358 357 358 359 359 359 359
329 331 327 317 321 320 320 320 322 319 320 327 332 335 338 334 336 334 330 325 326 325 333 335 334 333 328 332 333 334 339 345 347 349 350 350 350 350 350 352 354 355 356 357 356 357 358 359 359 359 359 360 360 361 363 363 363 362 362 361 361 360 361 360 357 353 353 355 356 357 358 359 358 358 358 358 358 359 359 358 357 356 357 359 359 358 357 356 358 360 360 357 359 360 360 359 358
329 338 330 321 317 318 323 318 319 320 319 327 332 334 336 338 339 334 329 325 328 335 336 339 335 330 321 326 327 333 340 345 347 349 348 348 348 349 350 351 353 353 355 357 358 358 357 357 358 358 360 357 356 356 358 361 362 361 361 361 361 361 361 361 358 355 353 356 357 357 357 358 358 358 356 357 359 359 359 359 359 358 358 358 360 358 356 356 359 360 360 360 359 360 360 359 357
334 335 329 318 315 314 318 322 326 321 321 329 333 337 334 336 340 333 334 338 331 337 337 328 337 331 329 330 331 338 343 346 347 347 346 346 346 347 349 350 351 353 355 356 357 358 357 356 356 356 356 356 356 356 356 357 360 360 360 360 360 360 362 359 357 352 354 355 356 358 358 355 356 358 358 356 356 358 359 359 359 359 360 359 357 357 358 358 358 358 359 360 359 359 359 360 359
342 334 321 316 313 315 319 323 324 316 325 329 335 335 329 330 338 339 344 343 331 331 334 334 334 337 332 333 339 343 345 347 347 345 344 343 343 343 345 347 349 351 354 356 356 356 356 356 355 355 356 356 356 357 355 355 359 360 359 360 359 360 360 360 357 356 355 354 357 358 356 352 351 353 354 356 357 358 358 359 360 359 358 359 359 359 358 358 360 361 360 361 360 361 360 360 359
333 323 318 313 315 316 325 324 328 330 325 329 332 335 332 327 334 337 341 334 333 332 332 334 336 336 339 341 343 345 346 344 343 341 340 339 340 340 342 344 346 347 351 353 356 356 355 355 355 355 355 355 355 356 355 355 357 358 357 358 361 360 360 360 357 354 354 353 354 351 354 352 349 352 355 357 358 358 357 357 358 358 359 361 361 360 360 360 360 361 358 358 359 359 362 357 360
325 318 316 312 315 321 330 330 330 328 328 332 333 337 333 330 334 336 330 328 329 328 330 332 332 336 339 341 342 343 343 342 341 340 338 337 338 338 340 342 343 347 348 351 353 354 354 354 355 355 354 354 355 356 357 358 355 355 356 358 360 360 360 358 357 356 354 353 349 349 349 349 350 351 355 355 357 358 356 358 358 358 359 359 361 361 360 361 359 359 359 357 358 360 354 354 354
328 320 313 315 323 330 330 330 331 335 334 331 332 336 333 334 337 340 329 327 328 325 326 329 330 331 335 339 342 342 342 341 340 338 337 337 338 338 339 340 341 344 347 350 351 354 355 355 356 355 354 353 353 354 354 354 355 355 355 355 356 356 355 356 355 355 355 355 355 353 351 352 352 354 358 357 358 356 356 357 358 359 359 360 362 362 362 361 362 361 361 362 359 358 355 355 353
328 322 317 319 328 328 333 334 335 335 336 333 333 336 333 337 338 335 329 325 324 327 331 329 329 332 335 339 340 341 340 339 338 338 336 337 338 339 340 340 341 343 346 349 352 353 354 355 356 355 354 354 354 356 353 353 354 354 354 355 355 354 354 354 355 355 355 355 355 355 354 353 351 350 352 354 354 354 355 355 356 356 357 358 360 353 354 355 356 354 354 356 355 357 357 356 356
330 324 326 328 331 329 336 336 337 336 338 334 334 331 331 339 337 331 329 323 322 327 332 334 335 336 337 338 340 341 339 338 337 336 336 336 337 337 339 339 342 344 347 346 349 353 354 356 355 354 354 353 354 353 353 358 354 353 353 355 354 354 354 354 354 355 355 355 355 356 355 353 353 353 353 353 354 354 353 354 353 354 354 354 356 352 352 351 351 352 353 353 354 355 355 355 357
321 325 328 330 332 332 338 336 336 336 334 333 332 336 336 334 332 335 336 329 330 336 336 336 337 338 340 341 340 339 339 338 337 335 336 336 336 337 338 339 340 341 345 345 349 352 354 355 355 355 353 353 353 354 355 354 352 353 354 355 353 353 354 354 354 355 355 355 355 356 353 353 352 352 353 353 353 353 353 353 353 353 353 353 353 352 353 353 351 352 353 353 354 355 355 355 356
325 318 327 331 335 335 337 336 337 335 334 333 338 339 333 331 326 336 333 336 335 337 338 338 339 340 341 339 340 339 339 338 337 337 337 337 337 337 338 338 340 342 343 344 348 350 353 354 355 354 353 353 353 354 354 352 352 353 356 359 354 359 356 354 354 355 356 357 357 357 355 352 352 352 352 352 352 353 353 353 353 353 354 353 353 353 353 353 354 355 356 356 356 357 356 357 356
323 321 328 330 335 337 339 338 336 336 337 339 338 333 332 335 331 334 332 338 336 337 338 338 339 339 339 339 339 339 339 339 339 339 339 339 339 339 338 339 340 341 342 344 347 349 351 354 354 354 354 353 353 354 353 352 352 353 357 354 353 361 353 354 356 356 355 357 357 358 357 353 352 352 352 352 351 351 352 352 353 352 352 351 353 352 354 352 353 354 355 355 356 356 356 356 357
326 325 331 330 333 337 337 338 335 335 335 337 332 330 333 336 339 332 335 338 337 338 337 337 338 337 337 338 339 339 339 339 340 339 338 339 339 338 337 338 339 340 342 345 346 348 351 354 354 353 354 353 354 355 352 352 352 353 354 354 353 359 354 355 357 355 354 355 355 356 356 353 352 352 351 350 351 350 351 351 352 353 352 352 352 351 353 352 354 355 355 355 354 355 355 355 358
327 326 328 328 335 335 336 333 335 335 334 336 330 328 330 336 334 323 338 340 337 336 335 337 336 336 337 338 339 340 339 339 339 340 340 339 338 337 337 338 339 341 344 344 346 348 352 353 353 354 354 357 354 354 353 352 353 353 355 353 355 355 356 357 356 354 354 354 355 355 356 357 352 352 351 349 349 349 348 349 352 352 351 351 353 352 355 355 355 354 355 356 355 355 354 355 356
320 327 327 331 335 334 334 334 332 336 331 335 333 328 332 335 334 327 335 340 337 334 334 335 336 336 337 338 339 339 340 340 341 340 338 337 337 337 337 338 340 342 344 344 346 349 351 352 353 354 355 356 355 354 355 352 353 353 355 353 355 356 357 355 355 354 354 353 354 353 353 355 355 351 351 350 350 349 348 350 352 351 351 352 354 353 354 356 356 355 355 356 356 356 355 356 355
314 329 326 327 330 327 332 330 330 335 331 335 334 328 325 327 327 335 338 340 336 334 333 334 335 336 336 338 338 338 339 340 340 339 339 339 339 340 339 341 342 343 345 347 348 349 350 352 352 353 355 357 354 354 354 353 353 355 354 353 356 357 356 354 353 354 352 352 352 352 352 355 356 352 351 355 355 349 349 349 351 353 353 354 353 355 355 355 355 354 354 356 356 356 355 353 352
329 329 328 324 323 324 331 331 331 331 332 333 332 314 319 325 332 336 340 337 335 333 332 333 334 335 336 337 337 338 339 339 339 339 340 340 340 341 341 343 345 345 346 347 349 348 352 352 353 354 355 355 354 354 354 353 353 354 355 354 358 356 355 354 353 352 353 352 352 351 352 356 352 352 353 352 351 350 350 350 351 352 353 354 354 355 353 353 354 355 355 357 358 358 350 352 347
320 325 322 319 318 316 327 328 330 326 334 333 335 314 318 326 332 338 339 337 332 330 331 333 333 334 335 336 336 336 338 339 339 340 340 341 342 342 342 345 346 347 349 348 348 349 352 352 353 354 356 355 357 355 355 353 353 355 353 353 356 355 354 353 352 352 352 352 351 351 352 356 351 352 353 352 350 350 350 350 351 352 353 356 354 354 354 354 355 356 357 357 354 352 350 356 350
322 317 311 315 313 316 326 329 328 324 330 334 330 314 319 326 331 337 339 336 332 329 331 332 332 333 333 334 335 336 337 338 339 340 340 342 343 343 343 345 347 347 348 348 349 350 351 351 355 353 356 354 355 355 354 353 353 354 353 355 355 354 354 353 351 351 351 351 352 350 351 356 351 352 353 352 350 350 350 349 350 352 353 356 354 354 358 356 357 357 358 358 353 348 353 350 351
300 309 305 312 312 314 321 328 328 332 329 330 327 316 319 322 331 337 339 335 331 329 330 331 331 331 332 333 334 335 335 336 338 339 340 342 343 344 344 345 347 348 349 348 348 349 350 351 355 353 354 354 354 354 353 352 353 353 352 355 354 353 352 352 351 351 351 351 350 350 351 356 351 352 354 352 350 350 350 350 351 352 355 356 356 356 356 359 359 358 357 359 354 353 350 347 348
306 299 307 312 314 314 313 326 328 330 329 322 328 321 321 327 331 335 337 336 331 327 329 330 331 331 331 332 333 333 334 334 335 337 339 341 343 344 345 348 348 348 349 349 349 349 349 351 353 353 354 354 353 353 351 351 352 353 352 353 356 352 351 351 352 351 350 350 350 350 350 356 353 352 353 352 350 351 351 351 352 354 355 357 357 357 358 358 357 356 357 356 358 356 353 350 350
300 300 306 311 316 317 316 317 326 329 331 325 325 324 324 327 331 333 334 337 331 328 328 329 329 330 331 331 332 332 333 333 334 338 339 341 343 344 345 346 347 348 349 348 349 349 350 350 353 355 353 353 352 352 350 350 351 352 352 352 352 350 350 350 352 350 350 351 349 350 351 354 355 352 353 353 350 354 352 351 351 354 357 359 359 358 358 359 360 354 354 356 358 358 356 354 353
297 302 305 312 312 315 314 320 329 330 326 325 324 321 322 326 328 331 333 336 331 331 333 329 330 330 330 330 331 331 332 332 335 338 340 342 343 344 344 346 346 347 348 347 349 349 349 350 351 353 352 352 351 350 350 348 349 350 349 349 348 350 347 351 351 350 351 350 350 350 352 353 354 353 352 352 352 353 352 352 352 355 359 361 359 358 357 355 355 353 356 362 358 356 359 359 354
296 297 310 312 313 315 319 321 328 331 326 324 324 324 322 326 328 329 332 335 331 330 329 330 329 329 329 329 330 331 331 332 334 337 340 341 342 344 345 346 345 346 346 346 347 347 348 349 350 350 350 351 350 348 347 346 345 346 346 347 346 347 346 349 351 351 352 351 351 350 352 353 353 353 353 352 351 358 354 353 355 356 359 361 359 358 355 357 361 358 359 357 360 352 353 352 349
296 292 294 294 311 311 315 317 327 330 323 320 325 323 322 324 328 329 331 331 329 328 329 330 329 329 329 329 330 331 332 333 333 336 339 341 341 343 344 344 345 342 343 344 345 347 348 349 350 350 349 350 350 349 348 347 346 346 345 346 345 346 347 349 349 351 352 353 352 351 353 353 353 353 355 352 353 352 356 356 357 358 359 360 358 359 361 366 358 356 355 354 353 354 352 351 347
294 294 292 293 292 300 314 322 326 328 322 315 324 321 321 323 326 327 328 330 331 330 330 331 331 328 328 329 330 330 331 329 331 334 338 339 341 342 343 343 343 343 342 343 345 346 347 349 349 350 349 349 350 350 349 346 347 349 348 347 346 345 349 351 350 353 356 354 352 352 354 353 354 353 356 354 353 353 355 358 358 358 359 360 361 356 356 357 357 357 356 355 354 352 356 355 349
292 291 293 290 293 309 303 320 325 326 321 317 321 319 320 325 327 326 327 330 331 333 332 333 335 334 328 329 330 330 329 327 329 332 335 338 340 341 341 340 341 342 342 343 344 345 347 349 349 349 349 350 349 351 351 348 348 349 350 349 349 348 348 354 355 356 356 355 352 353 354 354 354 355 356 355 356 356 357 357 358 359 359 361 359 355 355 356 356 357 357 359 353 350 348 350 357
292 293 291 292 293 306 308 318 322 324 322 324 322 317 315 321 320 321 327 330 331 332 334 333 335 337 337 334 331 331 329 326 328 331 334 336 338 339 340 340 341 340 340 342 344 345 347 348 348 349 349 349 349 353 351 348 352 349 351 350 351 352 352 352 352 353 355 356 355 354 354 356 356 357 359 359 359 358 359 359 359 359 359 360 360 357 356 357 358 357 358 360 354 351 348 350 353
289 291 295 294 295 308 319 320 318 315 312 319 318 304 305 317 321 322 325 326 327 330 329 329 332 334 336 333 331 330 330 327 329 331 334 336 337 339 339 339 338 339 340 342 344 346 348 348 348 349 349 349 349 351 350 350 350 348 347 345 344 345 345 347 347 349 352 354 354 355 356 358 358 359 361 361 361 362 360 360 359 360 360 362 361 358 357 358 358 358 359 358 354 353 352 347 348
291 293 295 296 300 314 319 317 315 307 306 315 320 303 298 313 318 322 322 322 325 326 327 329 330 332 333 332 332 331 328 326 328 332 334 335 336 337 337 337 338 338 340 342 344 346 348 348 348 349 349 349 349 350 349 352 347 349 347 346 345 345 345 347 350 353 354 356 358 356 357 359 360 360 361 362 363 364 362 360 360 360 362 361 366 359 359 359 360 360 359 357 356 361 351 349 350
289 292 293 295 302 317 318 317 315 307 318 319 319 308 301 302 313 323 323 321 323 325 326 328 330 331 332 333 333 334 329 326 327 330 333 335 336 337 336 337 337 339 340 341 343 345 347 347 348 348 349 350 349 350 349 351 347 348 347 346 347 346 347 347 350 353 356 358 357 357 358 359 361 362 361 361 362 364 362 361 361 361 361 360 366 361 359 359 359 360 361 356 360 360 353 351 351
291 294 294 296 307 316 319 317 312 310 312 305 314 313 304 300 305 322 321 318 319 322 325 327 329 330 332 332 334 335 332 327 327 329 331 334 335 336 337 337 338 339 340 340 343 345 347 348 349 349 349 350 349 350 349 350 350 348 348 347 347 349 350 350 353 356 356 359 356 357 357 358 360 361 361 360 361 363 365 361 361 361 360 359 368 363 361 360 359 358 360 358 358 356 354 353 352
296 295 297 296 306 316 319 314 310 309 305 301 310 312 301 299 306 319 323 321 320 322 325 327 329 329 331 332 333 336 336 330 328 329 331 333 335 336 337 338 338 339 340 342 343 345 346 347 348 348 347 349 349 349 349 349 350 350 347 347 347 347 351 351 353 353 354 356 355 356 356 357 358 359 359 360 360 362 364 363 360 361 361 360 366 363 361 361 359 358 359 358 358 359 358 355 356
297 297 297 295 298 305 311 306 305 303 299 302 311 313 307 296 306 317 316 318 323 324 325 327 329 330 332 332 333 335 336 335 331 328 331 333 335 336 337 336 337 339 340 341 342 344 345 347 347 346 347 348 350 349 348 348 350 349 348 348 348 347 349 349 350 351 352 353 353 354 355 356 357 358 359 360 360 361 362 365 362 361 361 365 366 361 361 360 359 359 360 360 360 358 359 361 365
298 295 293 292 296 302 299 297 303 298 293 302 311 313 310 298 298 315 323 324 326 325 324 326 327 329 331 332 332 336 337 337 335 330 329 331 332 334 335 335 336 337 338 340 341 343 345 346 347 346 346 347 349 350 348 348 349 349 349 349 348 349 349 349 350 350 351 352 352 353 354 354 354 356 357 358 359 360 362 364 365 363 363 362 362 361 360 360 360 360 360 361 360 357 358 359 357
295 294 294 289 284 293 294 298 295 292 296 301 310 312 305 305 305 314 322 324 325 327 328 328 329 330 331 332 332 336 338 339 337 333 329 329 330 331 332 334 336 336 337 339 341 342 344 345 346 346 345 347 348 350 349 349 349 349 349 348 349 350 350 350 350 350 351 352 352 352 352 352 353 353 355 356 357 360 362 361 362 361 361 361 361 359 360 360 360 360 360 360 359 359 359 358 357
292 292 289 287 285 286 283 286 290 292 300 303 309 313 305 304 308 318 317 320 324 328 329 330 331 332 332 332 332 335 337 340 339 337 330 328 330 331 333 334 335 336 337 338 341 342 344 345 346 346 345 347 348 348 349 349 349 349 350 349 349 351 350 350 350 350 351 352 352 352 353 353 352 353 354 356 358 359 362 362 363 362 362 362 362 359 359 360 360 360 360 360 359 359 359 360 360
293 292 294 289 287 286 283 285 289 293 296 301 311 305 297 301 305 319 321 322 322 327 330 331 333 334 334 334 333 334 335 337 339 338 336 329 330 332 332 334 335 336 336 338 340 342 344 344 345 346 345 346 347 347 349 349 350 350 350 351 351 351 351 351 351 351 351 351 352 353 353 354 354 354 355 357 360 360 361 362 362 361 361 361 363 361 362 361 362 361 362 360 361 358 359 360 359
294 294 296 291 292 293 289 289 292 294 294 297 302 300 302 303 317 321 324 326 324 328 329 331 332 334 334 333 332 332 334 335 339 338 338 335 330 331 333 334 335 336 337 338 340 342 343 344 345 345 345 346 347 348 348 349 350 351 351 351 351 352 354 352 352 354 352 352 352 353 353 354 355 355 356 358 359 360 360 361 362 362 361 360 362 361 361 361 360 360 360 360 359 361 359 360 360
293 294 290 292 297 298 295 298 296 298 294 293 299 301 304 309 313 318 321 323 325 327 328 330 331 332 333 332 332 331 333 333 338 339 338 337 336 332 333 334 335 336 336 337 340 342 343 344 344 344 345 347 347 348 347 349 350 350 351 351 351 352 353 351 351 352 352 352 353 353 354 355 356 356 356 359 358 360 360 361 361 361 361 361 361 362 360 360 360 361 360 359 359 361 361 359 358
294 290 293 298 302 299 295 289 288 286 287 290 300 299 299 300 302 316 319 320 323 325 327 329 330 331 331 332 332 331 331 333 338 341 340 339 338 337 333 334 336 337 337 337 340 342 343 344 345 344 345 345 346 347 347 348 349 350 351 351 351 352 353 352 352 352 353 353 352 353 354 355 355 356 357 358 359 359 359 363 360 361 361 360 361 362 361 360 360 360 360 360 360 359 360 360 359
295 293 298 297 291 291 291 292 286 286 285 288 296 301 300 299 302 313 315 318 321 324 326 327 328 330 330 331 333 334 334 337 337 338 338 339 340 341 339 335 336 337 339 338 340 342 343 344 346 345 345 346 347 347 348 349 350 350 351 352 352 352 352 352 352 353 354 353 352 352 353 354 355 357 359 359 358 358 358 359 360 360 360 361 361 361 361 360 360 359 359 358 358 358 357 357 357
300 299 298 298 294 289 291 291 289 291 288 293 293 298 295 304 307 313 316 320 321 325 327 328 329 330 331 333 334 334 334 335 338 338 339 340 342 343 342 339 337 337 339 339 341 342 342 343 345 346 347 347 347 347 349 348 349 350 350 352 353 353 353 352 352 353 353 353 353 353 353 353 354 357 358 358 358 358 358 357 358 359 359 360 360 360 360 360 360 359 358 357 358 358 358 357 357
296 292 293 297 295 297 295 295 293 293 293 291 291 292 297 303 315 316 319 322 324 325 324 325 326 328 331 333 334 334 334 335 337 337 338 339 341 343 344 344 344 345 345 343 342 342 343 344 344 346 346 346 347 347 347 348 350 350 351 350 351 352 352 353 352 352 353 353 353 355 354 354 355 355 357 357 357 358 358 357 357 359 359 360 361 361 361 361 360 359 358 358 358 358 358 358 358
292 289 293 291 291 292 289 288 294 299 296 292 293 291 298 310 320 321 321 323 324 325 324 324 325 327 328 330 334 336 335 335 336 338 340 339 339 342 345 345 344 344 345 345 345 345 344 344 344 346 346 346 347 347 347 348 350 350 350 350 351 351 352 353 352 352 352 353 353 354 355 355 354 355 356 355 356 357 359 358 357 358 359 359 361 361 360 360 359 359 358 357 357 358 358 358 358
Wind_Speed
2 4 3 2 1 1 0 1 0 0 0 1 0 1 1 2 2 2 6 4 5 0 1 7 7 5 2 3 5 3 1 9 3 6 3 1 3 7 5 8 8 7 7 5 5 6 6 6 9 11 11 9 9 8 8 8 8 8 9 9 8 8 9 9 10 10 9 9 9 10 10 11 11 11 11 11 11 9 5 10 12 13 17 19 14 12 13 14 14 14 14 14 13 12 12 12 13
4 3 2 1 1 1 1 0 1 1 1 2 1 0 0 1 2 3 8 3 1 3 3 7 5 5 5 9 8 7 5 4 2 3 3 4 6 4 5 9 9 9 6 5 5 5 6 7 15 11 10 10 9 8 8 8 8 8 8 8 8 8 8 9 9 9 8 7 9 10 10 9 10 11 12 11 12 9 5 9 10 15 15 15 14 12 13 14 14 14 14 14 13 11 10 12 14
4 4 3 1 1 1 1 0 1 1 1 2 1 0 0 2 3 3 2 3 4 5 5 7 6 3 2 2 3 1 1 5 5 3 5 8 10 5 6 8 8 8 7 5 6 6 7 6 6 9 9 9 9 8 8 8 7 7 7 7 8 8 8 9 9 8 9 10 10 11 8 7 9 11 11 11 10 8 8 10 12 15 13 13 12 13 14 14 15 13 14 13 13 12 13 14 14
5 1 3 1 1 1 1 2 1 0 1 0 0 0 1 2 1 2 2 3 5 7 5 6 4 1 1 3 2 5 5 4 3 8 7 8 2 7 7 9 8 7 5 4 4 5 3 5 6 8 8 8 8 8 7 7 7 7 7 7 7 7 8 8 12 13 5 6 9 9 6 7 8 10 11 13 9 7 9 9 12 14 12 11 11 13 12 12 14 14 14 13 13 12 13 13 13
4 2 1 1 2 2 1 1 0 0 0 1 1 0 0 1 3 4 3 2 2 3 3 4 4 3 1 4 1 1 3 6 7 1 5 3 5 8 8 9 8 7 6 5 5 4 4 8 7 7 8 8 8 7 6 6 6 6 7 7 6 7 9 12 12 7 4 7 6 7 8 8 8 8 9 11 12 9 10 10 12 15 13 8 9 13 12 10 12 12 14 12 12 13 13 14 14
3 2 1 1 1 2 1 1 2 0 1 1 1 1 2 2 5 3 4 1 0 1 2 3 3 4 3 3 2 3 8 5 6 3 6 6 10 9 9 8 8 7 6 5 4 3 3 8 7 7 8 8 8 7 6 6 6 6 7 7 7 7 11 15 9 4 5 7 6 7 8 8 7 7 8 9 10 9 9 10 10 15 15 9 11 12 12 9 12 13 14 12 11 10 12 13 13
2 1 0 1 0 0 1 1 3 2 0 0 0 1 4 3 3 5 3 3 2 3 1 3 10 7 6 1 4 3 1 6 5 5 3 10 10 10 9 8 8 7 6 5 4 3 3 8 8 8 8 8 7 7 7 7 6 7 7 7 7 8 13 14 10 5 6 7 6 6 8 8 8 7 8 8 8 10 10 11 10 14 15 12 11 14 13 9 12 13 14 11 10 9 9 13 12
1 1 1 2 0 0 1 2 3 1 1 1 1 2 4 4 4 3 3 2 3 2 3 6 3 6 2 2 3 4 5 4 7 8 10 12 11 9 9 9 9 7 6 4 4 3 6 8 7 8 8 7 7 7 7 7 7 7 7 7 7 8 15 17 8 4 7 7 4 5 6 7 8 7 6 7 7 9 10 11 10 13 15 13 12 14 14 10 13 13 13 12 10 7 7 11 12
2 1 1 0 1 1 1 2 2 0 1 1 0 1 6 5 3 4 2 1 3 3 5 5 3 6 2 7 4 4 4 9 10 12 12 12 11 10 7 8 10 7 6 5 4 3 3 7 7 8 8 8 7 7 7 7 7 7 7 7 8 8 15 17 9 3 6 5 5 5 7 7 6 6 5 6 7 8 10 10 10 12 13 12 13 17 17 14 14 15 11 10 10 9 8 6 10
1 1 1 1 1 2 2 1 0 0 1 0 1 3 5 4 3 2 4 5 4 6 2 2 4 8 6 8 5 2 5 11 12 11 9 10 10 9 9 8 9 9 7 5 4 3 2 7 8 8 8 7 7 7 8 8 7 7 7 8 7 8 12 18 12 6 7 7 6 7 8 8 7 6 7 7 8 7 9 10 11 12 12 11 11 15 19 19 17 17 14 11 9 11 9 9 9
1 0 1 1 1 2 1 1 0 1 1 2 2 2 2 2 3 2 3 6 3 4 5 7 7 10 5 4 3 3 8 11 12 12 10 10 9 9 8 8 8 8 8 6 5 3 2 3 8 8 8 7 7 8 8 8 8 8 8 8 7 8 9 18 11 8 7 7 7 7 8 9 7 7 7 8 7 7 8 10 12 12 12 10 10 12 14 16 18 20 19 16 15 14 12 11 11
1 0 1 2 1 1 2 0 0 1 2 0 2 1 1 2 1 4 8 11 4 6 4 1 5 8 8 4 3 6 10 9 9 10 10 9 8 8 8 6 7 7 8 7 5 4 3 2 3 7 8 8 8 8 8 8 8 8 7 8 7 7 11 19 10 5 8 7 6 7 8 8 8 7 6 7 6 7 8 11 12 12 13 11 12 12 13 15 14 14 17 18 15 15 14 13 11
1 0 1 1 1 2 2 2 1 4 2 2 4 1 1 3 2 4 5 8 7 8 4 0 12 1 5 4 4 7 8 8 9 10 9 8 8 7 7 7 7 8 7 6 6 4 4 3 3 2 5 9 9 9 8 8 7 8 8 7 7 8 10 19 15 2 6 8 7 9 9 8 8 8 7 6 6 7 9 11 14 13 12 12 11 11 13 11 14 11 10 12 13 13 12 11 9
1 1 1 2 1 2 2 1 2 4 3 2 2 2 1 1 2 0 8 8 7 5 1 10 3 5 9 7 6 7 7 9 10 9 8 8 7 7 8 7 8 7 7 6 5 4 4 4 3 4 4 3 4 6 8 8 7 7 8 7 7 7 10 13 19 7 5 8 8 9 9 9 9 9 8 8 9 7 9 10 12 15 11 11 11 11 12 9 12 11 10 12 13 13 11 11 9
2 1 0 1 2 1 3 2 4 4 3 3 3 4 2 2 2 4 6 10 2 4 7 4 4 4 5 9 9 8 9 11 9 10 10 9 8 7 8 7 7 6 6 6 5 5 4 4 4 4 4 5 5 4 3 5 7 7 7 6 6 5 9 11 19 12 4 8 9 9 10 9 8 9 10 10 10 9 8 9 11 13 13 10 10 12 13 10 12 13 13 14 13 11 11 10 9
2 1 1 2 3 2 3 3 3 5 2 4 5 3 5 2 2 4 0 1 4 6 3 4 0 1 6 0 6 10 13 10 10 10 10 10 8 7 7 6 6 6 5 5 6 4 4 4 4 4 4 5 4 5 5 4 5 6 5 6 6 4 10 14 22 13 7 8 8 11 13 9 8 6 11 9 10 9 9 8 11 11 12 12 14 14 14 11 12 13 14 14 13 12 11 9 8
1 0 1 1 5 2 2 1 5 5 5 5 4 5 4 3 1 1 1 1 12 5 3 2 1 3 8 3 12 14 12 11 11 11 10 8 7 6 5 5 5 4 4 5 5 4 4 4 4 4 4 5 5 5 5 4 3 6 4 6 5 7 11 15 17 16 11 6 6 9 12 7 5 5 5 5 8 7 9 9 10 11 9 10 12 15 14 11 8 13 14 14 12 12 10 8 7
1 1 0 3 4 2 2 4 3 4 11 7 8 6 6 7 1 2 4 6 5 7 7 3 8 9 10 12 13 13 11 12 11 11 8 8 6 7 6 5 5 6 6 5 5 4 4 3 4 4 4 4 4 4 4 3 3 4 4 4 4 6 8 11 11 9 9 6 12 9 6 6 5 4 5 5 4 7 9 11 9 12 8 10 12 12 13 11 11 14 13 11 10 10 9 5 5
2 1 0 4 1 3 2 0 5 9 6 9 7 4 3 4 5 2 5 3 6 9 6 7 10 11 13 14 13 12 12 11 11 9 10 9 8 9 7 6 5 6 6 5 4 4 3 3 3 4 4 3 5 4 4 4 4 4 4 5 5 7 7 8 7 8 6 9 7 4 6 6 6 4 4 4 3 10 9 11 12 11 10 10 10 11 12 10 11 12 14 10 6 10 6 5 5
3 1 2 4 3 3 4 5 5 6 10 10 8 3 5 3 1 1 6 7 6 9 9 8 11 14 14 14 13 13 12 11 9 9 9 8 7 8 8 7 6 4 5 5 5 4 4 4 3 3 3 4 4 4 4 4 4 4 4 5 5 5 5 5 6 6 6 6 6 7 4 4 4 3 9 10 8 5 7 10 13 11 10 10 11 7 9 10 10 11 10 9 7 4 4 4 4
1 2 3 2 1 1 1 5 7 10 6 9 5 4 6 1 2 1 9 11 3 5 8 12 12 16 16 15 13 12 12 11 10 8 8 7 6 4 5 5 5 5 3 3 4 4 5 5 4 3 3 4 4 4 4 4 4 4 4 4 5 4 5 5 5 6 6 6 6 5 6 6 5 4 4 4 6 5 6 5 6 4 4 6 8 6 5 5 5 5 4 5 4 4 5 4 4
3 6 3 2 0 1 1 6 8 8 6 6 5 10 6 2 3 4 7 8 7 7 8 8 14 15 17 16 13 11 12 11 11 10 9 9 9 7 6 4 5 4 4 4 3 5 5 5 4 3 3 4 4 4 4 4 4 4 4 4 5 4 4 5 5 5 5 5 5 5 5 6 5 4 5 5 5 5 5 5 6 5 5 5 4 5 4 4 5 4 4 4 3 3 3 3 3
3 3 3 4 2 3 3 8 8 9 8 6 7 2 5 3 3 2 2 2 2 4 6 9 12 14 15 13 12 11 11 11 11 10 9 9 7 6 7 6 7 6 5 4 3 3 4 5 4 3 3 4 4 4 3 4 4 4 4 4 5 4 4 5 5 5 5 5 5 5 6 6 5 5 5 5 6 6 6 6 6 5 5 4 4 4 4 3 4 4 4 3 3 4 3 2 3
2 3 0 2 4 7 6 9 10 7 7 4 3 4 4 7 7 1 2 2 6 6 8 10 11 12 14 14 12 11 11 11 10 10 10 10 9 8 7 7 5 4 5 5 4 4 4 5 4 4 3 4 3 3 4 3 3 3 3 4 4 4 4 4 4 4 5 5 5 5 5 5 5 5 5 6 5 5 5 5 5 5 5 4 3 3 4 3 4 3 3 3 4 3 3 2 2
5 3 3 3 4 6 7 8 9 10 6 6 7 7 4 4 2 1 2 3 7 9 10 12 13 12 12 13 12 12 11 9 9 8 7 5 7 6 5 4 5 5 6 6 5 5 5 5 5 5 4 4 3 3 4 3 2 2 3 3 3 4 3 3 4 4 4 4 4 5 5 5 5 5 5 4 5 5 4 4 4 4 3 3 3 3 3 3 3 3 3 3 3 3 3 3 3
6 8 1 4 5 8 10 7 8 8 5 6 11 8 5 5 2 2 1 3 7 11 11 12 13 13 13 12 11 11 11 10 9 9 8 7 7 8 6 5 5 6 6 6 6 5 5 6 6 6 5 4 4 4 3 3 2 3 3 3 2 3 3 4 5 4 3 4 4 5 5 5 4 5 5 3 4 4 3 3 4 4 3 3 3 4 3 3 3 3 3 3 3 3 3 3 3
5 4 4 7 10 11 7 9 7 4 6 4 9 9 2 1 3 2 1 2 9 12 12 10 13 13 12 11 10 10 11 10 10 8 7 6 7 8 7 6 7 6 5 6 6 6 6 7 6 5 5 5 4 4 4 3 3 3 2 2 2 3 3 4 4 4 3 3 3 4 5 5 4 4 4 4 3 3 3 3 4 3 3 3 3 3 3 3 2 2 2 3 3 3 3 2 2
1 5 5 9 10 9 7 8 8 6 5 5 9 7 2 1 2 3 3 1 11 15 12 11 11 12 11 11 11 9 9 9 8 9 10 10 8 8 8 8 8 7 7 7 6 6 6 7 7 6 5 5 5 5 4 4 4 3 3 2 2 2 4 4 4 4 4 3 3 4 4 4 4 3 4 3 4 3 3 3 3 3 2 2 3 2 2 2 2 2 3 3 3 3 4 3 2
3 10 5 9 8 6 5 9 8 7 7 10 9 10 1 3 4 3 2 5 11 15 13 12 12 10 10 10 9 8 8 8 8 9 9 8 7 7 9 8 8 7 5 7 6 7 8 8 7 6 6 6 6 6 4 4 3 3 3 3 2 3 3 4 3 4 3 3 3 4 4 4 4 4 3 4 3 3 3 3 2 2 2 3 2 2 2 2 2 3 3 2 3 2 2 3 1
4 2 7 10 5 2 3 8 2 2 7 13 10 6 6 8 1 3 2 6 12 14 13 12 10 9 9 9 9 8 7 8 9 9 8 7 8 8 9 8 9 7 6 5 7 8 6 6 5 5 7 7 7 6 4 4 4 3 3 2 2 3 2 3 3 3 4 3 3 4 4 4 4 4 4 4 3 3 3 3 3 2 2 3 2 1 1 1 2 2 4 3 2 2 3 3 0
4 2 4 4 6 2 2 2 6 4 4 8 2 3 4 5 2 3 1 6 14 15 15 13 11 10 9 9 8 9 9 8 9 9 8 8 8 8 9 9 9 8 6 6 8 8 8 7 6 6 7 7 7 6 6 5 4 3 3 3 2 2 2 2 3 3 3 3 3 3 4 4 4 4 4 4 3 3 3 2 1 1 2 1 0 1 1 1 1 2 2 2 2 1 2 1 1
2 4 1 1 3 0 6 7 6 4 4 5 1 2 2 3 3 5 2 6 10 14 15 14 12 10 10 9 9 9 9 8 8 9 9 9 9 8 9 10 10 9 9 8 7 7 8 8 7 7 8 8 7 6 6 5 5 4 3 3 2 3 2 2 2 2 3 3 3 3 4 3 4 4 4 4 3 2 3 2 1 1 1 0 1 0 1 2 2 2 2 2 2 0 1 2 2
3 2 1 1 1 2 4 6 5 3 9 3 2 2 2 2 3 5 4 8 9 12 13 14 13 11 11 10 9 8 8 8 8 9 9 8 8 8 9 10 10 10 9 9 9 8 8 8 8 8 10 8 7 7 6 5 5 5 4 3 3 3 2 2 2 3 3 3 3 3 3 3 4 4 4 3 3 3 2 2 1 1 1 1 0 1 2 1 2 2 1 1 1 2 2 2 2
3 3 2 2 4 1 0 5 9 5 11 5 5 3 3 1 5 6 5 7 8 10 13 13 12 11 11 10 9 9 9 9 10 10 10 9 8 9 8 8 10 10 9 10 9 10 9 8 8 8 8 8 6 6 6 5 5 4 3 3 3 3 2 2 2 3 3 3 3 3 3 3 4 4 4 4 3 2 2 2 1 1 1 1 1 2 2 2 1 0 3 1 1 1 2 2 3
7 4 2 1 0 2 2 5 8 10 10 9 7 1 1 2 5 5 5 6 9 9 12 13 13 12 11 10 10 10 9 10 11 10 11 10 10 8 8 8 8 9 8 9 9 8 7 7 6 7 8 7 6 6 5 4 4 3 2 3 3 3 2 2 3 3 2 2 3 3 3 3 4 4 4 4 4 3 2 2 1 0 0 0 1 2 2 2 1 1 2 3 1 2 2 2 2
4 5 3 3 4 5 4 3 6 11 9 8 10 7 4 3 5 6 5 5 10 6 2 7 10 11 11 10 10 10 10 11 10 10 11 10 9 9 8 8 8 8 7 7 8 7 7 7 6 6 7 7 6 5 5 4 4 4 4 2 2 3 3 3 2 3 2 2 2 3 3 3 3 4 4 4 4 3 2 2 1 0 0 0 1 2 3 2 3 3 3 3 4 3 2 1 1
3 3 4 2 4 2 1 2 7 8 6 4 8 4 3 3 6 6 6 5 7 6 7 7 10 11 11 10 11 11 11 11 9 11 10 11 11 9 8 8 7 7 7 8 8 8 8 8 7 7 7 7 7 6 5 6 5 4 3 4 4 3 4 3 3 3 3 2 3 3 3 3 3 4 4 4 4 3 3 2 2 1 1 0 1 2 2 2 1 1 2 1 3 4 2 2 2
2 4 2 0 2 3 1 2 6 8 6 2 6 5 2 3 3 3 3 9 12 13 9 8 9 11 11 12 12 12 11 6 8 7 9 10 9 9 7 7 7 9 8 9 10 9 8 8 8 7 6 7 7 7 7 6 4 5 5 5 3 4 4 5 4 4 4 3 4 4 3 3 3 3 3 4 3 4 3 2 1 0 0 0 1 1 1 1 2 2 2 3 2 2 3 2 2
2 1 2 1 4 2 3 3 6 7 4 2 6 7 5 6 6 6 5 8 9 12 12 11 9 9 10 10 11 11 9 8 9 11 10 10 11 10 8 8 9 10 10 11 10 9 8 8 8 7 7 7 7 7 6 6 4 4 5 4 5 3 2 3 3 2 3 3 4 4 3 3 3 3 3 4 4 3 3 3 2 2 2 2 1 1 1 2 2 3 3 2 3 2 1 1 4
4 2 1 3 1 2 1 3 4 4 1 4 3 5 3 4 5 7 7 7 6 5 7 5 5 4 8 11 11 11 11 9 11 11 12 11 11 10 9 9 9 8 7 7 7 9 8 8 7 7 7 7 7 7 7 6 6 6 4 5 5 4 4 3 2 3 3 3 3 4 3 4 4 4 4 4 3 3 3 3 2 2 3 3 3 2 1 0 2 2 2 2 2 3 4 3 3
2 2 2 2 1 1 3 4 2 2 5 4 8 3 2 5 5 5 7 8 6 4 5 6 4 3 3 3 7 10 11 11 11 11 11 11 11 11 12 10 9 9 9 9 10 9 8 10 9 9 8 8 7 7 7 6 6 4 2 2 3 4 5 4 3 2 3 2 2 3 4 4 4 4 4 4 4 4 4 3 3 3 3 3 3 2 2 1 1 1 1 1 2 1 3 2 1
2 5 8 5 2 3 5 9 8 3 0 3 6 2 3 5 9 6 6 4 10 5 7 11 11 7 3 7 8 7 8 10 13 13 13 13 13 11 10 9 10 10 10 10 10 11 10 9 9 8 7 7 8 8 7 7 7 7 5 6 5 4 4 5 6 6 5 5 5 3 3 4 4 4 4 4 4 4 4 4 4 3 3 3 3 3 2 2 2 1 1 2 2 1 2 3 2
1 6 7 7 4 6 9 8 5 2 3 5 3 6 3 1 8 8 7 6 7 8 11 13 12 9 6 9 8 8 9 8 9 11 12 12 12 12 11 11 11 11 11 9 9 9 9 9 9 9 8 7 8 8 8 7 7 7 8 8 7 7 7 6 6 5 6 5 4 5 4 4 4 5 4 4 4 4 4 4 4 4 3 3 3 3 2 1 0 1 2 2 2 2 1 2 3
3 2 3 6 7 9 11 11 6 2 2 2 4 2 0 2 5 8 12 10 10 13 14 14 13 12 10 9 10 9 10 10 10 11 13 14 14 14 14 13 12 12 10 9 9 8 9 10 9 9 7 7 7 8 8 8 8 7 7 6 6 7 7 7 6 6 5 4 5 5 4 4 4 4 4 5 4 4 4 4 4 4 3 2 2 3 2 2 1 0 1 1 2 1 3 3 2
3 1 7 7 7 7 10 8 4 2 5 0 4 0 0 3 2 4 10 7 10 12 13 14 15 15 12 10 10 9 10 11 11 11 13 14 14 14 13 13 13 11 10 11 11 11 10 9 10 8 8 8 7 9 9 8 8 8 8 7 6 5 6 6 5 4 5 5 5 4 4 4 4 4 4 5 4 4 4 4 4 4 3 3 2 2 2 2 3 2 2 2 2 2 1 2 3
6 4 2 2 1 2 8 6 5 2 2 4 7 6 3 6 2 6 9 8 11 15 16 15 17 17 14 10 9 8 7 7 9 13 13 13 14 14 15 14 12 12 11 11 10 9 8 8 9 9 9 8 8 9 9 9 8 8 8 8 8 6 4 3 4 6 5 5 6 5 5 5 4 4 4 4 4 4 4 4 4 5 5 3 3 3 3 3 3 3 3 3 3 3 1 2 3
2 1 2 2 6 3 3 4 2 3 1 7 8 10 5 2 4 11 14 12 14 12 9 10 11 14 14 12 10 8 8 8 8 9 12 13 13 13 11 13 13 10 8 9 9 9 9 10 10 11 10 8 8 9 9 9 8 8 8 9 9 9 7 6 5 5 5 5 6 5 5 6 5 5 4 4 4 4 4 4 4 5 4 4 3 4 4 4 3 3 3 3 4 4 2 2 2
5 1 2 5 2 5 4 2 3 3 4 5 7 12 7 4 3 5 10 2 4 10 15 17 16 16 16 13 11 9 8 8 6 8 9 9 8 9 10 11 10 10 8 9 9 9 9 10 10 11 9 9 9 9 9 9 7 7 7 8 9 8 9 7 8 8 7 8 7 6 5 4 4 4 4 4 4 4 4 4 4 3 4 3 4 4 3 3 2 3 3 3 3 2 3 3 3
3 3 3 6 1 2 0 1 3 5 7 3 6 9 2 9 4 2 6 10 4 7 10 15 18 16 15 14 13 9 7 7 6 7 9 10 11 12 11 10 9 8 10 11 11 11 10 10 11 12 11 9 9 9 10 9 8 7 7 7 7 7 8 8 8 7 7 7 6 5 5 5 4 4 4 4 4 5 4 4 3 3 3 3 4 3 3 3 3 3 3 4 3 4 4 4 3
5 6 5 5 2 2 3 1 0 2 4 1 6 7 4 2 2 1 5 7 8 5 8 11 14 16 16 15 13 10 8 8 5 4 8 10 11 12 11 11 11 10 11 11 10 10 9 9 10 11 11 10 9 9 9 9 8 8 7 7 6 6 7 7 7 7 7 6 6 7 6 6 5 6 5 6 5 4 4 4 4 4 4 4 4 4 4 3 3 3 3 3 3 3 3 3 3
9 4 9 7 5 4 3 3 5 7 3 2 7 5 4 2 1 8 9 10 7 7 8 9 11 13 14 13 12 11 9 8 6 6 7 10 11 11 11 10 10 11 11 11 9 9 8 8 9 10 9 9 9 10 8 9 8 8 7 7 6 6 7 6 7 7 7 7 6 6 6 5 5 5 5 5 4 5 5 4 4 4 4 4 4 3 3 3 3 3 3 3 2 3 3 3 2
2 3 5 5 8 5 3 7 6 4 2 3 2 3 1 3 1 5 7 6 1 6 6 6 9 10 10 11 13 12 10 9 7 7 6 7 8 8 9 9 10 10 10 10 10 9 10 10 10 11 11 11 10 9 9 9 8 7 7 7 7 7 6 6 5 5 5 6 6 7 6 6 6 5 4 4 5 5 5 5 4 5 4 4 4 4 4 3 4 4 3 3 3 2 3 3 2
4 7 5 8 6 6 2 2 1 3 4 2 0 5 2 5 2 7 9 9 8 2 5 7 8 10 11 11 11 13 13 9 8 8 7 7 6 7 9 10 9 9 10 11 11 11 13 11 10 10 9 8 10 10 9 8 7 7 7 7 7 7 7 7 7 7 7 6 6 6 6 6 5 4 4 4 4 5 5 5 5 4 4 4 4 4 3 3 4 4 4 4 4 3 3 4 2
5 2 7 1 3 4 4 3 1 1 4 3 2 3 5 2 3 5 7 9 8 5 2 5 5 7 10 10 10 11 13 12 7 5 5 5 6 7 7 8 10 11 12 12 12 11 10 11 12 12 10 10 10 10 10 9 9 9 8 8 8 8 8 7 7 7 6 6 5 5 4 4 6 5 5 4 5 5 5 5 4 4 4 4 4 3 3 3 3 3 3 3 3 3 3 2 2
6 5 6 7 2 2 2 3 2 2 1 1 1 2 2 3 3 4 6 6 6 6 4 5 7 6 6 4 4 5 5 7 7 8 7 5 4 4 3 6 9 10 10 11 11 10 8 8 9 11 12 13 12 9 8 7 8 7 7 8 8 7 6 6 6 6 6 6 6 6 6 6 5 5 5 5 5 5 4 4 4 4 4 4 3 3 3 3 3 3 2 2 2 2 3 3 2
0 2 4 1 4 4 4 5 3 6 3 2 2 1 3 3 2 2 1 4 4 6 8 8 8 8 6 6 6 6 8 8 6 5 4 4 6 4 5 7 7 7 7 6 7 8 10 9 8 9 7 5 5 7 7 8 7 6 6 6 6 6 6 6 6 6 6 6 6 6 6 6 6 5 5 6 5 5 5 5 4 4 4 3 3 3 3 3 3 3 3 2 2 2 3 4 3
1 3 1 1 2 2 4 2 1 4 7 4 3 1 5 2 3 3 2 3 4 5 7 7 9 10 10 9 8 8 9 7 5 6 8 7 2 1 3 4 3 4 6 8 9 10 9 8 9 9 9 9 9 9 8 8 7 7 6 7 7 7 7 6 6 6 6 6 6 6 6 6 5 5 5 5 6 6 5 5 5 4 4 4 5 4 4 3 4 4 3 3 2 3 3 3 3
1 4 1 3 3 3 4 3 1 2 5 4 4 5 4 2 2 1 4 5 6 7 10 9 9 9 9 8 9 9 9 8 8 9 10 10 9 6 4 3 1 4 6 7 7 7 7 9 10 10 9 9 9 8 8 8 7 7 8 7 7 6 6 6 7 6 6 5 5 6 6 5 6 6 6 6 6 5 5 5 4 5 5 5 5 5 4 4 4 5 4 3 3 3 4 4 3
Wind_Direction
161 94 115 113 82 148 133 331 15 300 85 58 9 32 194 84 131 118 117 143 114 259 150 114 120 144 182 193 165 112 349 141 200 140 211 219 122 134 139 125 120 114 114 125 133 139 124 121 129 174 164 124 121 114 110 107 107 103 104 102 99 91 88 88 85 86 89 93 98 105 111 110 109 110 107 110 108 98 101 113 110 99 96 112 116 120 117 111 110 112 117 115 111 111 115 121 115
110 117 102 89 146 336 3 339 121 346 26 69 354 87 319 85 118 138 150 149 136 153 138 121 110 82 44 111 127 121 40 37 44 111 86 114 112 106 147 132 129 125 123 125 129 117 115 166 187 155 128 126 122 118 116 112 111 109 106 101 96 92 86 84 88 87 92 104 97 89 93 104 112 112 114 121 109 115 126 99 99 90 101 105 114 119 117 114 114 116 117 116 114 113 122 121 112
120 120 85 16 0 82 285 84 46 347 53 71 289 191 37 87 130 160 137 115 129 118 115 111 98 55 108 111 72 33 209 63 99 109 104 140 134 162 145 131 124 123 125 129 128 132 154 172 143 128 126 125 123 121 120 122 119 114 106 98 95 93 89 89 94 91 77 72 79 82 73 82 103 108 108 100 101 115 104 93 104 107 106 111 122 125 118 121 121 123 120 120 116 117 113 111 113
118 126 133 167 350 14 60 14 103 106 22 228 312 0 95 163 109 115 91 134 129 124 123 128 118 267 94 46 117 74 82 115 143 136 135 164 191 144 140 129 122 118 118 121 127 133 127 128 131 129 127 120 120 118 119 115 110 102 98 95 96 94 102 103 77 61 69 86 77 83 87 87 92 99 106 109 116 128 113 108 107 108 110 110 121 121 119 119 124 126 125 121 116 116 113 110 107
128 189 182 73 102 358 64 164 195 336 96 214 192 331 157 102 114 106 110 121 98 111 97 120 89 347 127 112 104 108 201 102 139 180 121 117 115 137 135 127 122 123 121 118 122 121 133 127 134 126 122 117 114 110 102 106 108 103 102 103 105 113 110 80 72 108 94 88 92 103 103 98 94 94 110 119 129 129 117 113 110 110 107 119 127 124 122 126 118 117 117 111 111 118 116 111 108
108 145 253 97 68 199 15 54 303 236 215 127 112 236 132 117 128 119 129 109 166 96 97 102 136 154 49 11 10 109 125 150 161 121 138 143 139 140 134 127 125 122 116 115 122 123 137 136 137 129 120 114 111 110 109 117 115 119 116 116 118 111 90 89 106 113 120 104 100 108 111 107 103 106 101 110 128 125 119 113 116 121 122 138 133 128 121 129 120 119 115 119 115 112 116 116 117
138 120 1 44 351 133 105 144 280 245 41 43 162 180 145 127 124 116 117 100 351 65 13 113 115 100 81 148 74 88 255 128 148 148 152 137 136 136 134 128 122 118 116 119 116 119 142 139 140 126 112 111 116 125 129 121 117 111 106 104 105 104 96 95 102 127 108 100 112 108 106 109 109 108 111 119 127 135 129 126 127 109 124 142 140 124 124 130 114 117 118 116 105 99 114 119 118
295 59 286 66 271 43 11 305 273 180 320 70 30 128 128 136 129 119 158 115 171 127 98 136 106 89 65 10 114 56 59 69 94 105 123 134 136 135 133 129 124 119 116 112 111 126 142 140 135 116 110 119 127 120 115 116 115 112 110 103 102 94 97 94 92 121 105 101 106 101 68 104 109 115 120 121 125 120 118 116 114 118 124 134 129 111 103 116 113 104 101 110 114 126 111 113 116
341 89 249 256 38 159 294 257 294 97 97 289 5 86 121 136 130 126 138 116 93 90 128 134 145 91 131 84 74 101 74 102 100 119 133 134 137 138 132 131 131 124 115 107 108 106 118 142 125 118 126 128 118 115 109 106 101 96 92 95 87 87 93 97 108 132 98 113 119 98 95 94 105 120 125 118 116 115 107 108 112 114 118 124 123 119 129 120 107 97 107 118 116 108 103 106 116
34 26 344 71 314 355 317 297 334 334 292 1 328 130 125 138 134 98 130 101 124 121 97 68 80 111 118 90 99 69 119 114 119 123 133 135 134 131 127 127 128 124 117 110 107 111 138 136 127 122 122 120 116 114 109 102 96 93 92 82 73 59 93 113 121 122 97 102 104 107 104 109 114 118 123 126 122 114 116 115 108 98 96 101 116 124 127 125 127 124 123 128 143 134 135 119 109
10 351 265 41 23 315 228 263 261 114 142 106 55 29 69 108 134 102 120 109 111 120 111 103 73 120 111 78 50 93 118 119 131 137 140 137 129 127 123 122 123 122 121 115 108 94 102 114 128 128 128 123 112 111 107 101 98 94 90 84 81 81 85 84 100 119 110 101 97 107 107 109 113 116 119 120 112 109 109 107 93 101 104 117 119 118 115 126 129 137 138 147 159 149 137 129 122
3 326 25 79 282 196 257 163 197 96 76 176 112 95 347 55 8 112 128 121 124 120 132 151 150 125 82 108 119 124 126 124 129 132 138 130 122 120 119 120 121 119 117 114 104 86 81 90 100 135 131 122 119 112 105 103 102 96 93 94 92 88 88 90 65 54 80 93 103 102 99 103 109 115 111 102 106 111 114 98 109 114 121 128 123 114 114 120 127 133 148 156 138 136 135 123 113
141 279 84 264 224 181 258 284 261 150 148 228 149 109 70 71 348 147 119 110 123 112 132 324 145 147 112 124 115 121 130 132 133 139 130 124 118 116 114 117 119 119 117 112 102 89 84 74 83 101 125 121 113 108 111 110 107 105 97 93 86 89 94 106 118 100 97 93 98 97 93 93 105 103 104 108 112 118 112 119 123 119 120 121 114 110 114 124 123 126 120 126 119 115 108 103 97
134 196 127 291 340 258 239 218 149 162 170 109 53 109 62 73 26 97 123 110 125 116 94 134 93 108 100 114 129 144 138 141 144 133 122 112 111 114 115 116 121 117 112 107 100 95 86 77 77 72 78 56 73 101 110 109 105 99 95 88 85 88 98 98 108 108 85 90 87 91 96 104 103 109 111 113 113 106 111 113 112 119 126 130 128 125 116 118 101 94 94 114 113 107 106 106 119
213 185 65 270 282 343 231 221 180 172 185 135 136 140 115 47 46 103 124 126 65 110 114 59 154 90 205 164 158 168 149 153 139 124 117 111 108 109 112 116 115 112 108 104 105 98 88 79 77 75 73 78 78 77 49 99 102 101 99 100 100 105 101 94 93 90 96 91 86 91 94 93 99 103 101 105 105 113 112 114 116 121 131 126 126 121 126 112 100 94 86 90 99 102 105 111 113
188 103 22 295 270 188 281 225 177 157 133 169 149 100 101 88 33 106 200 258 131 109 98 150 357 188 139 180 142 138 142 144 127 121 116 112 107 104 108 114 114 108 103 104 114 94 92 85 82 77 81 82 86 82 82 51 91 98 96 102 99 126 100 80 83 97 74 58 72 91 95 91 86 75 96 99 110 117 117 117 117 128 130 135 133 118 97 95 90 92 90 90 97 103 102 97 94
67 80 298 327 291 170 244 246 183 177 122 154 139 155 144 124 319 72 303 242 126 131 51 50 96 105 117 112 127 129 139 126 122 118 113 113 117 112 107 108 114 112 113 118 114 102 96 100 94 84 84 86 83 87 84 78 86 89 58 83 68 73 82 91 97 100 85 62 60 78 86 77 51 45 36 73 107 107 107 106 115 114 112 114 104 108 104 104 103 84 81 82 83 81 82 81 80
93 223 196 281 245 246 233 225 197 127 150 159 158 174 131 123 151 105 102 71 79 82 73 52 58 78 97 112 120 132 127 127 129 126 128 125 128 127 128 132 133 141 136 134 134 117 104 102 107 99 86 85 84 83 97 94 74 74 54 61 84 87 78 84 91 102 108 61 36 15 46 68 62 39 31 60 58 103 100 112 110 104 102 92 93 94 108 110 104 94 81 71 75 79 61 43 42
152 193 151 255 227 252 11 138 112 141 147 139 140 136 139 125 137 166 113 127 105 90 83 99 95 95 106 117 131 130 130 131 135 134 137 140 144 143 142 138 136 138 146 147 138 121 114 107 105 99 98 82 76 79 92 93 80 70 62 71 71 72 80 78 82 96 117 119 119 55 33 47 57 47 68 88 87 104 117 120 108 109 106 100 105 98 97 99 94 97 102 117 93 57 48 39 40
225 111 297 263 239 339 62 91 71 70 121 127 129 125 111 135 71 285 133 129 107 117 127 121 123 129 131 136 137 134 136 137 137 141 141 144 148 146 144 146 144 149 144 153 148 119 125 122 106 109 110 86 78 83 86 85 85 79 75 74 72 75 76 77 75 84 87 89 103 113 117 75 52 44 90 96 84 53 85 98 98 92 96 97 75 61 71 85 73 80 87 68 54 53 47 45 43
202 117 225 243 250 47 20 90 78 98 118 122 123 105 111 41 73 109 138 113 119 144 160 151 152 143 141 145 142 139 140 142 141 145 143 143 141 135 141 143 147 138 127 110 132 140 141 139 130 109 98 90 83 82 93 92 86 79 78 76 76 76 78 75 79 79 78 83 90 93 102 110 99 79 84 83 79 83 76 74 80 79 62 50 60 60 46 40 51 58 48 55 45 47 49 40 43
129 215 225 238 59 34 168 106 116 117 110 125 123 138 145 135 55 106 153 149 176 178 170 152 144 146 145 148 147 141 145 147 150 152 158 157 157 150 138 115 102 110 131 132 145 148 154 148 131 129 104 90 85 87 103 104 89 89 89 93 87 71 77 80 82 78 78 81 93 95 81 73 94 95 66 61 62 69 66 62 62 65 53 55 54 67 54 55 53 56 56 57 43 55 64 56 49
229 282 245 231 175 132 132 125 125 121 132 134 141 114 112 96 92 89 67 102 133 129 142 144 144 147 142 140 143 144 149 153 157 159 158 156 155 157 155 148 150 154 152 144 135 137 149 153 139 133 124 96 86 93 73 78 82 95 93 111 103 90 80 85 84 83 82 84 82 90 91 85 77 76 70 67 68 69 69 63 63 58 61 58 48 70 60 56 55 54 53 47 39 39 35 51 51
247 260 277 204 154 143 149 130 125 104 107 116 85 104 72 124 114 292 64 336 126 126 134 135 135 139 140 145 151 148 155 158 162 163 165 165 163 164 164 157 150 132 139 147 149 149 153 162 152 151 128 113 100 99 88 91 82 103 138 119 104 124 100 88 86 93 85 80 82 86 94 88 92 82 79 78 79 75 69 68 69 67 67 63 57 53 66 50 48 46 43 30 23 20 7 350 11
209 260 229 121 96 130 123 122 111 104 93 117 100 72 40 24 111 123 45 17 123 124 131 132 139 143 146 150 154 152 156 158 160 159 158 154 153 142 137 128 142 145 158 156 152 154 166 159 156 160 154 129 119 115 109 105 99 93 93 108 130 134 98 105 103 92 88 84 82 85 92 93 88 89 84 82 80 73 70 69 67 68 61 53 58 54 53 47 41 34 30 9 13 350 343 325 326
206 215 143 112 125 118 104 101 101 126 121 113 93 81 13 9 350 47 349 24 136 129 131 139 143 148 154 160 157 155 158 162 156 160 165 156 154 150 159 156 157 174 176 155 156 161 165 156 164 167 163 144 139 136 125 129 132 129 106 120 194 123 117 117 109 97 92 94 91 88 87 97 98 99 94 85 83 79 75 67 61 56 59 39 45 49 36 43 31 12 5 2 345 337 312 308 310
185 184 164 139 132 109 109 136 141 139 78 106 112 124 164 331 117 202 64 21 143 130 138 145 149 156 157 161 159 159 161 165 165 155 154 160 161 164 163 160 175 181 162 166 163 161 165 160 167 164 161 162 145 158 151 143 150 144 138 121 100 114 131 125 108 107 99 96 103 95 94 97 99 94 94 93 88 87 71 69 63 53 46 34 43 50 37 35 15 18 332 326 321 311 292 296 294
217 148 120 119 100 87 147 116 118 119 95 98 99 91 74 335 11 176 160 137 152 138 145 151 156 158 161 162 162 164 168 166 156 160 168 169 173 170 169 172 177 174 174 175 167 156 158 164 163 163 164 167 168 166 173 159 166 162 153 122 109 117 130 117 123 123 120 110 108 99 105 95 104 97 102 92 101 90 68 76 66 55 44 33 44 49 37 30 1 327 313 293 282 277 291 288 247
221 146 104 96 88 123 161 135 166 175 136 134 119 88 12 218 208 138 150 162 154 145 151 156 161 162 162 163 161 169 172 166 164 172 178 177 169 170 174 176 171 174 178 169 159 159 162 161 161 165 165 168 168 173 170 170 160 167 152 161 144 142 124 122 124 132 122 124 123 119 112 113 107 112 109 108 98 95 93 82 71 61 39 32 40 31 22 357 349 324 298 287 286 273 294 302 208
105 47 119 108 126 141 113 75 197 111 133 145 139 153 212 214 145 134 136 166 151 148 156 160 163 164 165 166 168 169 170 171 177 181 177 173 172 172 174 174 172 171 164 162 156 168 161 159 158 162 169 175 177 171 160 166 172 171 166 152 170 141 127 124 133 123 137 138 131 127 127 125 112 112 115 98 96 95 88 77 82 57 45 37 35 43 347 346 308 308 296 308 312 348 336 325 108
109 99 57 126 133 206 161 190 195 109 159 169 311 158 212 206 185 153 137 179 161 160 160 164 164 166 169 172 170 174 180 184 181 179 180 174 173 176 176 171 172 166 158 162 173 168 161 160 160 165 170 174 175 174 172 172 175 174 160 166 157 131 139 119 116 124 134 142 135 134 135 131 119 121 123 121 109 111 105 92 64 48 47 39 49 211 198 251 260 273 293 314 321 317 333 299 21
98 97 271 18 134 88 161 147 219 156 158 204 337 44 212 178 169 159 150 181 175 163 163 165 167 168 172 174 176 180 185 185 182 183 184 181 178 179 178 177 173 168 170 172 166 162 166 164 163 159 167 170 176 174 165 168 176 176 169 178 147 152 148 127 122 126 134 144 143 141 143 137 117 121 121 121 115 113 121 129 127 138 87 81 192 202 202 299 307 303 286 232 318 241 256 27 11
357 91 239 133 89 210 146 151 206 266 124 257 155 162 52 262 178 133 158 181 190 168 168 165 169 171 172 177 181 184 181 187 188 189 190 183 188 185 182 177 178 174 171 171 167 164 167 167 167 156 168 172 173 174 160 166 167 180 176 185 163 160 154 156 133 121 137 157 155 150 145 148 118 126 119 114 125 136 135 145 180 175 173 177 191 35 345 326 321 309 280 221 189 37 29 357 349
257 41 139 208 172 184 31 120 164 224 144 176 236 137 213 274 146 148 163 178 191 179 173 170 171 174 175 177 182 183 186 184 191 193 194 187 187 185 184 182 179 173 172 172 170 167 170 167 168 162 163 167 165 167 167 164 171 164 172 174 172 169 163 158 144 141 161 168 162 156 153 154 132 135 128 125 121 146 149 161 163 168 166 190 39 9 327 314 266 210 344 338 35 170 326 325 314
193 166 95 44 49 180 163 167 185 173 171 151 186 200 186 199 150 159 168 171 192 197 178 174 173 176 177 179 182 184 187 189 195 193 192 188 184 185 179 181 180 177 173 171 169 166 160 165 163 161 157 163 158 154 152 148 138 118 117 144 157 159 143 156 147 156 169 163 173 152 153 159 135 139 134 139 134 146 136 159 190 130 205 191 37 7 320 336 10 19 15 318 275 237 228 246 265
168 163 166 155 148 215 220 188 145 163 166 167 179 194 162 149 154 161 170 175 189 206 190 174 177 180 181 181 182 185 190 196 196 192 190 185 184 180 178 178 180 178 169 164 165 163 164 163 161 152 156 158 143 136 139 140 137 151 154 113 134 180 172 168 171 179 165 168 170 157 159 154 141 138 139 138 143 144 151 172 158 157 179 93 39 348 324 354 353 359 339 2 358 356 51 34 352
114 82 113 202 196 285 338 121 158 164 128 185 179 187 148 164 158 174 175 156 183 201 199 190 182 182 185 184 184 188 190 196 193 190 185 184 184 181 176 171 171 170 166 163 166 169 170 171 159 166 160 153 150 147 154 157 156 146 127 177 188 185 177 177 179 183 182 177 161 158 170 160 143 143 146 149 157 170 160 170 158 80 58 127 178 245 283 293 319 230 305 27 25 12 10 10 20
95 93 78 312 172 249 234 170 168 173 150 143 147 142 137 91 131 121 223 184 192 197 204 195 189 187 187 186 187 190 193 182 178 186 188 184 182 178 170 167 162 169 180 169 173 176 176 170 172 167 150 160 162 162 163 168 174 176 158 181 164 163 173 177 185 192 183 168 154 164 175 165 157 160 158 161 164 169 160 171 141 123 93 97 214 241 266 31 37 29 16 28 32 20 1 1 326
60 143 172 80 273 239 330 44 148 170 102 189 149 160 144 155 164 153 226 222 207 202 203 196 187 184 191 193 191 189 184 182 182 189 184 183 182 176 173 175 181 183 178 177 175 169 172 175 181 163 161 163 167 161 156 172 177 174 167 167 166 150 202 186 180 154 164 156 158 165 169 168 169 176 170 171 170 184 184 164 182 170 170 187 206 288 15 55 49 47 42 64 348 21 10 329 352
112 75 88 205 250 119 296 1 144 133 119 166 160 138 140 140 137 168 211 235 215 210 209 220 211 207 199 199 193 190 186 177 184 185 184 183 181 179 177 179 181 176 175 176 175 174 173 179 177 169 168 164 164 168 168 170 171 182 185 168 171 154 164 152 118 108 128 139 162 163 169 172 181 183 182 180 185 180 180 190 178 180 192 187 191 212 242 112 63 67 54 68 104 15 3 336 358
313 166 171 205 209 236 151 175 107 78 41 104 107 69 328 171 185 204 208 214 244 203 184 197 237 256 235 223 209 197 186 182 184 184 182 180 180 185 184 183 173 177 180 183 181 178 180 181 178 173 171 169 165 169 167 159 151 155 150 66 89 70 59 100 115 137 175 192 169 177 190 176 182 185 185 187 186 183 183 186 183 191 191 187 175 179 177 154 127 117 124 84 84 125 3 349 321
318 234 201 203 164 120 107 128 130 118 313 264 140 46 286 204 199 188 166 175 209 180 192 210 210 228 220 221 209 202 198 185 183 184 183 182 183 184 185 177 178 182 184 188 186 181 178 179 175 173 172 169 163 169 161 155 156 155 144 144 152 160 145 157 182 186 185 189 206 192 170 183 179 188 188 191 195 178 185 186 182 175 193 186 182 171 151 150 136 113 199 176 140 218 131 60 13
133 271 192 195 155 125 142 146 110 156 208 206 223 143 265 230 200 179 174 189 194 185 209 208 208 212 217 216 213 196 193 198 193 183 180 180 184 181 183 183 183 186 191 183 182 182 180 175 177 173 174 173 165 163 159 157 153 160 166 170 171 177 173 199 193 187 184 196 185 182 190 181 183 184 191 192 190 186 177 176 176 179 176 180 174 148 167 170 180 186 171 165 175 140 135 85 47
227 240 137 159 158 149 167 162 163 185 151 92 177 114 205 320 248 184 190 180 195 198 204 210 207 209 212 214 210 200 193 190 186 186 184 183 182 183 184 187 185 191 182 174 182 180 176 176 176 178 175 172 172 161 163 163 160 167 166 169 171 175 185 192 189 190 188 173 176 192 173 192 188 192 183 188 186 180 167 170 171 167 167 177 182 178 182 200 141 265 154 143 137 141 161 123 120
213 220 139 150 182 175 166 162 157 159 107 26 208 128 326 251 280 178 159 174 204 217 201 206 206 207 213 212 209 200 196 190 184 183 187 185 185 186 184 186 191 182 174 178 183 184 178 175 175 174 175 172 173 168 166 170 165 166 165 163 171 192 188 189 181 176 173 178 182 179 183 188 187 197 192 182 186 173 175 171 172 174 175 181 186 175 188 177 187 164 150 147 159 157 140 126 116
267 203 115 101 110 125 156 152 129 135 109 234 202 181 183 285 213 159 178 208 213 209 205 205 203 203 207 208 208 194 186 194 194 187 185 186 186 188 188 186 180 185 183 182 182 174 171 169 172 173 178 176 174 175 172 171 169 162 158 167 169 180 185 168 167 172 179 175 186 186 189 187 191 191 197 192 184 186 185 171 173 181 191 186 184 185 176 187 190 180 189 181 165 135 128 150 132
138 108 172 33 37 76 72 61 100 67 228 244 183 187 167 293 218 176 174 214 212 192 195 203 204 203 204 204 202 190 177 183 192 193 188 186 186 186 182 183 189 183 177 173 174 177 172 173 174 177 182 177 175 178 174 175 169 167 165 167 169 171 174 166 167 182 168 175 188 189 186 196 188 192 184 191 192 186 191 186 179 191 186 183 178 174 193 205 196 170 163 159 156 148 161 162 116
178 123 127 82 37 18 40 354 28 192 267 253 159 182 181 198 297 216 219 52 180 185 191 193 197 199 198 197 197 190 174 173 179 184 184 177 174 185 185 188 182 179 170 175 180 175 176 177 175 179 181 179 179 177 177 176 172 173 168 169 169 170 166 170 179 179 179 184 186 185 191 179 197 189 186 184 203 196 187 194 195 181 187 179 190 190 200 205 171 157 153 156 162 153 146 138 138
148 113 79 123 234 62 322 80 210 205 213 278 174 135 75 244 224 289 224 237 259 203 198 195 194 194 193 194 191 183 158 155 169 182 175 175 178 181 185 186 176 171 181 182 182 181 180 178 180 179 184 181 181 176 178 177 175 177 173 175 174 167 169 173 180 180 181 184 184 178 166 189 185 191 198 191 204 198 187 183 190 187 199 201 189 179 200 185 172 165 166 160 160 169 172 163 160
142 166 156 127 128 133 158 248 280 316 273 189 122 162 206 252 313 328 281 264 245 224 209 199 192 189 186 186 186 175 168 160 163 173 182 181 183 185 182 177 178 183 186 185 182 181 181 183 183 185 187 181 180 179 179 175 182 180 175 173 174 170 176 178 181 182 184 187 182 182 180 179 184 201 189 203 195 187 192 197 189 197 202 197 185 190 189 189 177 181 176 172 186 180 158 163 156
195 143 158 179 141 155 177 182 165 203 199 313 147 119 230 182 228 323 301 266 241 207 202 201 189 186 182 180 179 175 173 161 160 170 185 188 187 182 178 177 181 185 185 184 182 183 180 183 184 190 186 187 183 184 180 182 182 178 175 174 172 174 180 183 187 186 180 180 183 181 186 173 181 198 202 203 179 187 195 189 193 193 200 200 189 186 183 181 187 179 186 199 176 159 176 161 165
204 167 98 120 221 140 153 196 156 221 153 89 183 197 197 149 207 329 340 351 191 174 167 158 175 170 171 176 177 175 178 172 164 170 179 189 188 180 174 178 183 184 185 184 184 179 184 190 188 192 189 185 187 186 188 185 183 177 174 174 178 177 180 183 185 181 179 183 180 184 186 184 192 189 197 185 195 186 192 195 193 201 198 201 202 197 188 182 178 182 189 184 194 175 170 190 181
215 120 181 209 172 139 71 69 13 81 55 226 179 334 316 305 324 8 353 19 14 88 142 159 168 167 167 180 179 174 181 183 163 172 177 172 172 178 179 180 181 182 183 188 187 186 189 185 185 192 193 188 190 191 189 185 178 176 184 179 174 177 178 179 182 184 180 181 181 189 183 189 178 178 180 190 186 198 200 192 193 198 195 202 208 208 199 195 182 183 185 184 198 190 178 204 175
100 140 229 117 98 111 130 195 343 70 168 241 62 226 297 30 221 341 3 18 11 16 109 143 148 154 170 181 181 177 180 185 157 132 131 139 160 176 179 180 184 186 188 189 191 191 189 186 187 187 186 190 197 195 191 186 183 185 183 184 182 182 183 183 181 185 178 171 181 186 182 170 192 185 178 183 181 191 200 202 191 199 196 196 208 205 205 202 188 203 198 203 191 166 185 174 203
150 198 177 138 214 228 319 113 183 151 285 246 322 216 250 174 258 352 4 8 9 21 58 99 118 145 152 144 163 171 145 94 119 147 145 129 108 92 130 184 193 195 192 192 189 182 181 188 189 189 191 195 192 191 194 194 190 189 188 189 184 183 183 181 182 181 174 179 183 181 184 200 187 176 173 176 179 186 187 202 196 198 195 204 201 206 195 197 195 222 215 224 191 177 184 206 205
20 96 114 294 116 154 146 203 170 117 192 96 285 59 241 211 198 250 27 42 355 73 76 83 89 89 96 100 93 113 117 134 133 137 118 90 89 123 164 182 192 194 187 186 181 177 182 184 182 193 201 191 182 191 189 195 200 197 192 182 186 180 178 179 179 174 178 185 190 182 190 182 195 179 183 178 179 184 185 187 200 199 198 201 204 209 193 190 186 219 226 236 225 196 213 226 222
13 32 306 239 17 215 114 37 92 158 163 180 153 255 268 243 216 224 117 84 59 72 77 70 83 90 92 93 102 106 117 131 140 90 81 79 89 353 43 46 90 143 172 177 185 186 181 172 182 184 186 187 189 192 189 196 187 199 191 188 187 182 181 175 171 178 183 189 185 187 188 196 170 191 179 178 186 193 192 191 195 204 204 200 202 208 194 185 190 204 216 228 229 218 234 246 240
171 150 144 176 123 133 152 246 12 85 114 180 138 232 271 291 243 73 127 76 70 69 81 74 75 78 80 87 92 106 115 119 120 126 137 151 178 179 78 51 91 188 182 179 176 168 177 185 186 183 185 190 189 189 195 193 192 193 196 192 191 184 182 176 175 174 184 184 188 188 186 173 186 194 180 190 191 190 188 189 197 203 208 207 207 207 198 190 199 203 213 206 216 217 235 248 239